Year,Month,Day,Hour,Minute,Value (Times are PST for temperature in C)
2011,05,19,00,00,7.10
2011,05,19,00,01,7.00
2011,05,19,00,02,7.00
2011,05,19,00,03,7.00
2011,05,19,00,04,7.00
2011,05,19,00,05,7.00
2011,05,19,00,06,7.00
2011,05,19,00,07,6.90
2011,05,19,00,08,6.90
2011,05,19,00,09,6.90
2011,05,19,00,10,6.90
2011,05,19,00,11,6.90
2011,05,19,00,12,6.90
2011,05,19,00,13,6.90
2011,05,19,00,14,6.90
2011,05,19,00,15,6.90
2011,05,19,00,16,6.90
2011,05,19,00,17,6.90
2011,05,19,00,18,6.80
2011,05,19,00,19,6.80
2011,05,19,00,20,6.80
2011,05,19,00,21,6.80
2011,05,19,00,22,6.80
2011,05,19,00,23,6.80
2011,05,19,00,24,6.80
2011,05,19,00,25,6.80
2011,05,19,00,26,6.80
2011,05,19,00,27,6.70
2011,05,19,00,28,6.70
2011,05,19,00,29,6.70
2011,05,19,00,30,6.70
2011,05,19,00,31,6.70
2011,05,19,00,32,6.70
2011,05,19,00,33,6.70
2011,05,19,00,34,6.70
2011,05,19,00,35,6.70
2011,05,19,00,36,6.60
2011,05,19,00,37,6.60
2011,05,19,00,38,6.60
2011,05,19,00,39,6.60
2011,05,19,00,40,6.60
2011,05,19,00,41,6.50
2011,05,19,00,42,6.50
2011,05,19,00,43,6.50
2011,05,19,00,44,6.50
2011,05,19,00,45,6.40
2011,05,19,00,46,6.40
2011,05,19,00,47,6.40
2011,05,19,00,48,6.40
2011,05,19,00,49,6.40
2011,05,19,00,50,6.30
2011,05,19,00,51,6.30
2011,05,19,00,52,6.30
2011,05,19,00,53,6.30
2011,05,19,00,54,6.20
2011,05,19,00,55,6.20
2011,05,19,00,56,6.20
2011,05,19,00,57,6.20
2011,05,19,00,58,6.10
2011,05,19,00,59,6.10
2011,05,19,01,00,6.10
2011,05,19,01,01,6.10
2011,05,19,01,02,6.00
2011,05,19,01,03,6.00
2011,05,19,01,04,5.90
2011,05,19,01,05,5.90
2011,05,19,01,06,5.90
2011,05,19,01,07,5.90
2011,05,19,01,08,5.90
2011,05,19,01,09,5.80
2011,05,19,01,10,5.80
2011,05,19,01,11,5.80
2011,05,19,01,12,5.80
2011,05,19,01,13,5.80
2011,05,19,01,14,5.70
2011,05,19,01,15,5.70
2011,05,19,01,16,5.70
2011,05,19,01,17,5.70
2011,05,19,01,18,5.70
2011,05,19,01,19,5.60
2011,05,19,01,20,5.60
2011,05,19,01,21,5.60
2011,05,19,01,22,5.60
2011,05,19,01,23,5.60
2011,05,19,01,24,5.50
2011,05,19,01,25,5.50
2011,05,19,01,26,5.50
2011,05,19,01,27,5.40
2011,05,19,01,28,5.40
2011,05,19,01,29,5.40
2011,05,19,01,30,5.40
2011,05,19,01,31,5.30
2011,05,19,01,32,5.30
2011,05,19,01,33,5.30
2011,05,19,01,34,5.30
2011,05,19,01,35,5.30
2011,05,19,01,36,5.30
2011,05,19,01,37,5.30
2011,05,19,01,38,5.30
2011,05,19,01,39,5.30
2011,05,19,01,40,5.30
2011,05,19,01,41,5.30
2011,05,19,01,42,5.30
2011,05,19,01,43,5.30
2011,05,19,01,44,5.20
2011,05,19,01,45,5.20
2011,05,19,01,46,5.20
2011,05,19,01,47,5.20
2011,05,19,01,48,5.20
2011,05,19,01,49,5.20
2011,05,19,01,50,5.20
2011,05,19,01,51,5.20
2011,05,19,01,52,5.10
2011,05,19,01,53,5.10
2011,05,19,01,54,5.10
2011,05,19,01,55,5.10
2011,05,19,01,56,5.10
2011,05,19,01,57,5.10
2011,05,19,01,58,5.10
2011,05,19,01,59,5.00
2011,05,19,02,00,5.00
2011,05,19,02,01,5.00
2011,05,19,02,02,5.00
2011,05,19,02,03,4.90
2011,05,19,02,04,4.90
2011,05,19,02,05,4.90
2011,05,19,02,06,4.90
2011,05,19,02,07,4.90
2011,05,19,02,08,4.90
2011,05,19,02,09,4.90
2011,05,19,02,10,4.90
2011,05,19,02,11,4.90
2011,05,19,02,12,4.90
2011,05,19,02,13,4.80
2011,05,19,02,14,4.80
2011,05,19,02,15,4.80
2011,05,19,02,16,4.80
2011,05,19,02,17,4.80
2011,05,19,02,18,4.80
2011,05,19,02,19,4.80
2011,05,19,02,20,4.80
2011,05,19,02,21,4.70
2011,05,19,02,22,4.70
2011,05,19,02,23,4.70
2011,05,19,02,24,4.70
2011,05,19,02,25,4.70
2011,05,19,02,26,4.70
2011,05,19,02,27,4.60
2011,05,19,02,28,4.60
2011,05,19,02,29,4.60
2011,05,19,02,30,4.60
2011,05,19,02,31,4.60
2011,05,19,02,32,4.60
2011,05,19,02,33,4.60
2011,05,19,02,34,4.60
2011,05,19,02,35,4.60
2011,05,19,02,36,4.60
2011,05,19,02,37,4.60
2011,05,19,02,38,4.60
2011,05,19,02,39,4.50
2011,05,19,02,40,4.50
2011,05,19,02,41,4.50
2011,05,19,02,42,4.50
2011,05,19,02,43,4.50
2011,05,19,02,44,4.50
2011,05,19,02,45,4.60
2011,05,19,02,46,4.50
2011,05,19,02,47,4.60
2011,05,19,02,48,4.50
2011,05,19,02,49,4.60
2011,05,19,02,50,4.50
2011,05,19,02,51,4.60
2011,05,19,02,52,4.50
2011,05,19,02,53,4.50
2011,05,19,02,54,4.50
2011,05,19,02,55,4.50
2011,05,19,02,56,4.50
2011,05,19,02,57,4.50
2011,05,19,02,58,4.50
2011,05,19,02,59,4.50
2011,05,19,03,00,4.40
2011,05,19,03,01,4.40
2011,05,19,03,02,4.40
2011,05,19,03,06,4.40
2011,05,19,03,07,4.40
2011,05,19,03,08,4.30
2011,05,19,03,09,4.30
2011,05,19,03,10,4.30
2011,05,19,03,11,4.30
2011,05,19,03,12,4.30
2011,05,19,03,13,4.30
2011,05,19,03,14,4.30
2011,05,19,03,15,4.30
2011,05,19,03,16,4.20
2011,05,19,03,17,4.20
2011,05,19,03,18,4.20
2011,05,19,03,19,4.20
2011,05,19,03,20,4.20
2011,05,19,03,21,4.20
2011,05,19,03,22,4.20
2011,05,19,03,23,4.10
2011,05,19,03,24,4.10
2011,05,19,03,25,4.10
2011,05,19,03,26,4.10
2011,05,19,03,27,4.10
2011,05,19,03,28,4.10
2011,05,19,03,29,4.10
2011,05,19,03,30,4.10
2011,05,19,03,31,4.10
2011,05,19,03,32,4.10
2011,05,19,03,33,4.10
2011,05,19,03,34,4.10
2011,05,19,03,35,4.10
2011,05,19,03,36,4.10
2011,05,19,03,37,4.10
2011,05,19,03,38,4.10
2011,05,19,03,39,4.10
2011,05,19,03,40,4.10
2011,05,19,03,41,4.10
2011,05,19,03,42,4.10
2011,05,19,03,43,4.10
2011,05,19,03,44,4.10
2011,05,19,03,45,4.10
2011,05,19,03,46,4.10
2011,05,19,03,47,4.10
2011,05,19,03,48,4.10
2011,05,19,03,49,4.10
2011,05,19,03,50,4.10
2011,05,19,03,51,4.00
2011,05,19,03,52,4.00
2011,05,19,03,53,4.00
2011,05,19,03,54,3.90
2011,05,19,03,55,3.90
2011,05,19,03,56,3.90
2011,05,19,03,57,3.90
2011,05,19,03,58,3.90
2011,05,19,03,59,3.90
2011,05,19,04,00,3.90
2011,05,19,04,01,3.80
2011,05,19,04,02,3.80
2011,05,19,04,03,3.80
2011,05,19,04,04,3.80
2011,05,19,04,05,3.80
2011,05,19,04,06,3.80
2011,05,19,04,07,3.70
2011,05,19,04,08,3.70
2011,05,19,04,09,3.70
2011,05,19,04,10,3.70
2011,05,19,04,11,3.70
2011,05,19,04,12,3.70
2011,05,19,04,13,3.70
2011,05,19,04,14,3.70
2011,05,19,04,15,3.70
2011,05,19,04,16,3.80
2011,05,19,04,17,3.80
2011,05,19,04,18,3.80
2011,05,19,04,19,3.80
2011,05,19,04,20,3.80
2011,05,19,04,21,3.80
2011,05,19,04,22,3.80
2011,05,19,04,23,3.80
2011,05,19,04,24,3.80
2011,05,19,04,25,3.80
2011,05,19,04,26,3.80
2011,05,19,04,27,3.80
2011,05,19,04,28,3.80
2011,05,19,04,29,3.80
2011,05,19,04,30,3.80
2011,05,19,04,31,3.80
2011,05,19,04,32,3.80
2011,05,19,04,33,3.80
2011,05,19,04,34,3.80
2011,05,19,04,35,3.70
2011,05,19,04,36,3.70
2011,05,19,04,37,3.70
2011,05,19,04,38,3.70
2011,05,19,04,39,3.70
2011,05,19,04,40,3.80
2011,05,19,04,41,3.80
2011,05,19,04,42,3.70
2011,05,19,04,43,3.70
2011,05,19,04,44,3.70
2011,05,19,04,45,3.70
2011,05,19,04,46,3.70
2011,05,19,04,47,3.70
2011,05,19,04,48,3.70
2011,05,19,04,49,3.70
2011,05,19,04,50,3.60
2011,05,19,04,51,3.60
2011,05,19,04,52,3.60
2011,05,19,04,53,3.60
2011,05,19,04,54,3.60
2011,05,19,04,55,3.60
2011,05,19,04,56,3.60
2011,05,19,04,57,3.50
2011,05,19,04,58,3.50
2011,05,19,04,59,3.50
2011,05,19,05,00,3.50
2011,05,19,05,01,3.40
2011,05,19,05,02,3.40
2011,05,19,05,03,3.40
2011,05,19,05,04,3.40
2011,05,19,05,05,3.40
2011,05,19,05,06,3.40
2011,05,19,05,07,3.40
2011,05,19,05,08,3.30
2011,05,19,05,09,3.30
2011,05,19,05,10,3.30
2011,05,19,05,11,3.30
2011,05,19,05,12,3.30
2011,05,19,05,13,3.30
2011,05,19,05,14,3.30
2011,05,19,05,15,3.30
2011,05,19,05,16,3.30
2011,05,19,05,17,3.20
2011,05,19,05,18,3.20
2011,05,19,05,19,3.20
2011,05,19,05,20,3.20
2011,05,19,05,21,3.20
2011,05,19,05,22,3.20
2011,05,19,05,23,3.10
2011,05,19,05,24,3.10
2011,05,19,05,25,3.10
2011,05,19,05,26,3.10
2011,05,19,05,27,3.10
2011,05,19,05,28,3.10
2011,05,19,05,29,3.10
2011,05,19,05,30,3.10
2011,05,19,05,31,3.10
2011,05,19,05,32,3.10
2011,05,19,05,33,3.10
2011,05,19,05,34,3.10
2011,05,19,05,35,3.10
2011,05,19,05,36,3.10
2011,05,19,05,37,3.10
2011,05,19,05,38,3.10
2011,05,19,05,39,3.10
2011,05,19,05,40,3.10
2011,05,19,05,41,3.00
2011,05,19,05,42,3.00
2011,05,19,05,43,3.00
2011,05,19,05,44,3.00
2011,05,19,05,45,3.00
2011,05,19,05,46,3.00
2011,05,19,05,47,3.00
2011,05,19,05,48,3.00
2011,05,19,05,49,3.00
2011,05,19,05,50,3.00
2011,05,19,05,51,3.00
2011,05,19,05,52,3.00
2011,05,19,05,53,3.00
2011,05,19,05,54,3.00
2011,05,19,05,55,3.00
2011,05,19,05,56,3.00
2011,05,19,05,57,3.00
2011,05,19,05,58,3.00
2011,05,19,05,59,2.90
2011,05,19,06,00,2.90
2011,05,19,06,01,2.90
2011,05,19,06,02,2.90
2011,05,19,06,03,2.90
2011,05,19,06,04,2.90
2011,05,19,06,05,2.90
2011,05,19,06,06,2.90
2011,05,19,06,07,2.90
2011,05,19,06,08,2.90
2011,05,19,06,09,2.90
2011,05,19,06,10,2.90
2011,05,19,06,11,2.90
2011,05,19,06,12,2.90
2011,05,19,06,13,2.90
2011,05,19,06,14,2.90
2011,05,19,06,15,2.90
2011,05,19,06,16,2.90
2011,05,19,06,17,2.90
2011,05,19,06,18,2.90
2011,05,19,06,19,2.90
2011,05,19,06,20,2.90
2011,05,19,06,21,2.90
2011,05,19,06,22,2.90
2011,05,19,06,23,2.90
2011,05,19,06,24,2.90
2011,05,19,06,25,3.00
2011,05,19,06,26,3.00
2011,05,19,06,27,3.00
2011,05,19,06,28,3.00
2011,05,19,06,29,3.00
2011,05,19,06,30,3.00
2011,05,19,06,31,3.00
2011,05,19,06,32,3.00
2011,05,19,06,33,3.00
2011,05,19,06,34,3.10
2011,05,19,06,35,3.10
2011,05,19,06,36,3.10
2011,05,19,06,37,3.10
2011,05,19,06,38,3.20
2011,05,19,06,39,3.20
2011,05,19,06,40,3.20
2011,05,19,06,41,3.20
2011,05,19,06,42,3.20
2011,05,19,06,43,3.30
2011,05,19,06,44,3.30
2011,05,19,06,45,3.30
2011,05,19,06,46,3.30
2011,05,19,06,47,3.30
2011,05,19,06,48,3.40
2011,05,19,06,49,3.40
2011,05,19,06,50,3.40
2011,05,19,06,51,3.40
2011,05,19,06,52,3.40
2011,05,19,06,53,3.40
2011,05,19,06,54,3.40
2011,05,19,06,55,3.50
2011,05,19,06,56,3.50
2011,05,19,06,57,3.60
2011,05,19,06,58,3.60
2011,05,19,06,59,3.60
2011,05,19,07,00,3.70
2011,05,19,07,01,3.70
2011,05,19,07,02,3.80
2011,05,19,07,03,3.80
2011,05,19,07,04,3.90
2011,05,19,07,05,3.90
2011,05,19,07,06,3.90
2011,05,19,07,07,3.90
2011,05,19,07,08,4.00
2011,05,19,07,09,4.10
2011,05,19,07,10,4.10
2011,05,19,07,11,4.10
2011,05,19,07,12,4.20
2011,05,19,07,13,4.20
2011,05,19,07,14,4.30
2011,05,19,07,15,4.30
2011,05,19,07,16,4.30
2011,05,19,07,17,4.40
2011,05,19,07,18,4.50
2011,05,19,07,19,4.50
2011,05,19,07,20,4.60
2011,05,19,07,21,4.60
2011,05,19,07,22,4.70
2011,05,19,07,23,4.70
2011,05,19,07,24,4.80
2011,05,19,07,25,4.80
2011,05,19,07,26,4.80
2011,05,19,07,27,4.90
2011,05,19,07,28,4.90
2011,05,19,07,29,4.90
2011,05,19,07,30,5.00
2011,05,19,07,31,5.00
2011,05,19,07,32,5.10
2011,05,19,07,33,5.10
2011,05,19,07,34,5.20
2011,05,19,07,35,5.20
2011,05,19,07,36,5.20
2011,05,19,07,37,5.30
2011,05,19,07,38,5.30
2011,05,19,07,39,5.40
2011,05,19,07,40,5.40
2011,05,19,07,41,5.50
2011,05,19,07,42,5.50
2011,05,19,07,43,5.60
2011,05,19,07,44,5.60
2011,05,19,07,45,5.70
2011,05,19,07,46,5.80
2011,05,19,07,47,5.80
2011,05,19,07,48,5.80
2011,05,19,07,49,5.90
2011,05,19,07,50,5.90
2011,05,19,07,51,6.00
2011,05,19,07,52,6.10
2011,05,19,07,53,6.10
2011,05,19,07,54,6.20
2011,05,19,07,55,6.20
2011,05,19,07,56,6.30
2011,05,19,07,57,6.40
2011,05,19,07,58,6.50
2011,05,19,07,59,6.50
2011,05,19,08,00,6.60
2011,05,19,08,01,6.70
2011,05,19,08,02,6.80
2011,05,19,08,03,6.90
2011,05,19,08,04,7.10
2011,05,19,08,05,7.20
2011,05,19,08,06,7.30
2011,05,19,08,07,7.50
2011,05,19,08,08,7.70
2011,05,19,08,09,7.80
2011,05,19,08,10,8.00
2011,05,19,08,11,8.10
2011,05,19,08,12,8.30
2011,05,19,08,13,8.40
2011,05,19,08,14,8.60
2011,05,19,08,15,8.70
2011,05,19,08,16,8.90
2011,05,19,08,17,9.00
2011,05,19,08,18,9.10
2011,05,19,08,19,9.30
2011,05,19,08,20,9.40
2011,05,19,08,21,9.50
2011,05,19,08,22,9.60
2011,05,19,08,23,9.60
2011,05,19,08,24,9.70
2011,05,19,08,25,9.70
2011,05,19,08,26,9.70
2011,05,19,08,27,9.80
2011,05,19,08,28,9.80
2011,05,19,08,29,9.80
2011,05,19,08,30,9.90
2011,05,19,08,31,9.90
2011,05,19,08,32,9.90
2011,05,19,08,33,10.00
2011,05,19,08,34,10.00
2011,05,19,08,35,10.10
2011,05,19,08,36,10.10
2011,05,19,08,37,10.20
2011,05,19,08,38,10.30
2011,05,19,08,39,10.30
2011,05,19,08,40,10.40
2011,05,19,08,41,10.50
2011,05,19,08,42,10.60
2011,05,19,08,43,10.70
2011,05,19,08,44,10.80
2011,05,19,08,45,10.80
2011,05,19,08,46,10.90
2011,05,19,08,47,10.90
2011,05,19,08,48,11.00
2011,05,19,08,49,11.00
2011,05,19,08,50,11.10
2011,05,19,08,51,11.10
2011,05,19,08,52,11.10
2011,05,19,08,53,11.20
2011,05,19,08,54,11.20
2011,05,19,08,55,11.30
2011,05,19,08,56,11.30
2011,05,19,08,57,11.40
2011,05,19,08,58,11.50
2011,05,19,08,59,11.50
2011,05,19,09,00,11.60
2011,05,19,09,01,11.70
2011,05,19,09,02,11.70
2011,05,19,09,03,11.80
2011,05,19,09,04,11.90
2011,05,19,09,05,12.00
2011,05,19,09,06,12.00
2011,05,19,09,07,12.10
2011,05,19,09,08,12.20
2011,05,19,09,09,12.20
2011,05,19,09,10,12.30
2011,05,19,09,11,12.30
2011,05,19,09,12,12.40
2011,05,19,09,13,12.50
2011,05,19,09,14,12.50
2011,05,19,09,15,12.60
2011,05,19,09,16,12.70
2011,05,19,09,17,12.70
2011,05,19,09,18,12.80
2011,05,19,09,19,12.80
2011,05,19,09,20,12.80
2011,05,19,09,21,12.90
2011,05,19,09,22,13.00
2011,05,19,09,23,13.00
2011,05,19,09,24,13.10
2011,05,19,09,25,13.20
2011,05,19,09,26,13.30
2011,05,19,09,27,13.30
2011,05,19,09,28,13.30
2011,05,19,09,29,13.40
2011,05,19,09,30,13.40
2011,05,19,09,31,13.40
2011,05,19,09,32,13.50
2011,05,19,09,33,13.60
2011,05,19,09,34,13.60
2011,05,19,09,35,13.70
2011,05,19,09,36,13.80
2011,05,19,09,37,13.80
2011,05,19,09,38,13.90
2011,05,19,09,39,13.90
2011,05,19,09,40,13.90
2011,05,19,09,41,13.90
2011,05,19,09,42,13.80
2011,05,19,09,43,13.80
2011,05,19,09,44,13.80
2011,05,19,09,45,13.80
2011,05,19,09,46,13.80
2011,05,19,09,47,13.80
2011,05,19,09,48,13.70
2011,05,19,09,49,13.70
2011,05,19,09,50,13.70
2011,05,19,09,51,13.70
2011,05,19,09,52,13.70
2011,05,19,09,53,13.80
2011,05,19,09,54,13.80
2011,05,19,09,55,13.90
2011,05,19,09,56,13.90
2011,05,19,09,57,14.10
2011,05,19,09,58,14.20
2011,05,19,09,59,14.20
2011,05,19,10,00,14.30
2011,05,19,10,01,14.30
2011,05,19,10,02,14.40
2011,05,19,10,03,14.40
2011,05,19,10,04,14.50
2011,05,19,10,05,14.50
2011,05,19,10,06,14.60
2011,05,19,10,07,14.70
2011,05,19,10,08,14.80
2011,05,19,10,09,14.80
2011,05,19,10,10,14.90
2011,05,19,10,11,15.00
2011,05,19,10,12,15.00
2011,05,19,10,13,15.00
2011,05,19,10,14,15.00
2011,05,19,10,15,15.00
2011,05,19,10,16,15.10
2011,05,19,10,17,15.10
2011,05,19,10,18,15.00
2011,05,19,10,19,15.00
2011,05,19,10,20,15.00
2011,05,19,10,21,14.90
2011,05,19,10,22,14.80
2011,05,19,10,23,14.70
2011,05,19,10,24,14.70
2011,05,19,10,25,14.70
2011,05,19,10,26,14.70
2011,05,19,10,27,14.80
2011,05,19,10,28,14.80
2011,05,19,10,29,15.00
2011,05,19,10,30,15.00
2011,05,19,10,31,15.00
2011,05,19,10,32,15.00
2011,05,19,10,33,15.00
2011,05,19,10,34,15.00
2011,05,19,10,35,15.00
2011,05,19,10,36,15.00
2011,05,19,10,37,15.00
2011,05,19,10,38,15.00
2011,05,19,10,39,15.00
2011,05,19,10,40,14.90
2011,05,19,10,41,14.80
2011,05,19,10,42,14.70
2011,05,19,10,43,14.70
2011,05,19,10,44,14.70
2011,05,19,10,45,14.70
2011,05,19,10,46,14.70
2011,05,19,10,47,14.70
2011,05,19,10,48,14.80
2011,05,19,10,49,15.00
2011,05,19,10,50,15.00
2011,05,19,10,51,15.00
2011,05,19,10,52,15.00
2011,05,19,10,53,15.00
2011,05,19,10,54,15.10
2011,05,19,10,55,15.10
2011,05,19,10,56,15.10
2011,05,19,10,57,15.10
2011,05,19,10,58,15.00
2011,05,19,10,59,15.00
2011,05,19,11,00,15.00
2011,05,19,11,01,15.00
2011,05,19,11,02,15.00
2011,05,19,11,03,15.20
2011,05,19,11,04,15.30
2011,05,19,11,05,15.30
2011,05,19,11,06,15.40
2011,05,19,11,07,15.40
2011,05,19,11,08,15.40
2011,05,19,11,09,15.40
2011,05,19,11,10,15.40
2011,05,19,11,11,15.30
2011,05,19,11,12,15.40
2011,05,19,11,13,15.40
2011,05,19,11,14,15.40
2011,05,19,11,15,15.50
2011,05,19,11,16,15.50
2011,05,19,11,17,15.60
2011,05,19,11,18,15.60
2011,05,19,11,19,15.70
2011,05,19,11,20,15.70
2011,05,19,11,21,15.70
2011,05,19,11,22,15.80
2011,05,19,11,23,15.80
2011,05,19,11,24,15.90
2011,05,19,11,25,16.00
2011,05,19,11,26,16.10
2011,05,19,11,27,16.10
2011,05,19,11,28,16.00
2011,05,19,11,29,15.90
2011,05,19,11,30,15.80
2011,05,19,11,31,15.80
2011,05,19,11,32,15.80
2011,05,19,11,33,15.80
2011,05,19,11,34,15.90
2011,05,19,11,35,15.90
2011,05,19,11,36,15.90
2011,05,19,11,37,15.80
2011,05,19,11,38,15.80
2011,05,19,11,39,15.80
2011,05,19,11,40,15.90
2011,05,19,11,41,15.90
2011,05,19,11,42,15.90
2011,05,19,11,43,15.90
2011,05,19,11,44,16.00
2011,05,19,11,45,16.00
2011,05,19,11,46,16.10
2011,05,19,11,47,16.10
2011,05,19,11,48,16.10
2011,05,19,11,49,16.10
2011,05,19,11,50,16.20
2011,05,19,11,51,16.10
2011,05,19,11,52,16.10
2011,05,19,11,53,16.10
2011,05,19,11,54,16.10
2011,05,19,11,55,16.20
2011,05,19,11,56,16.20
2011,05,19,11,57,16.40
2011,05,19,11,58,16.50
2011,05,19,11,59,16.60
2011,05,19,12,00,16.70
2011,05,19,12,01,16.70
2011,05,19,12,02,16.70
2011,05,19,12,03,16.70
2011,05,19,12,04,16.70
2011,05,19,12,05,16.70
2011,05,19,12,06,16.70
2011,05,19,12,07,16.80
2011,05,19,12,08,16.80
2011,05,19,12,09,16.80
2011,05,19,12,10,16.90
2011,05,19,12,11,16.90
2011,05,19,12,12,17.00
2011,05,19,12,13,17.10
2011,05,19,12,14,17.10
2011,05,19,12,15,17.20
2011,05,19,12,16,17.20
2011,05,19,12,17,17.20
2011,05,19,12,18,17.20
2011,05,19,12,19,17.20
2011,05,19,12,20,17.20
2011,05,19,12,21,17.20
2011,05,19,12,22,17.20
2011,05,19,12,23,17.30
2011,05,19,12,24,17.40
2011,05,19,12,25,17.40
2011,05,19,12,26,17.50
2011,05,19,12,27,17.60
2011,05,19,12,28,17.70
2011,05,19,12,29,17.80
2011,05,19,12,30,17.90
2011,05,19,12,31,18.00
2011,05,19,12,32,18.00
2011,05,19,12,33,18.10
2011,05,19,12,34,18.20
2011,05,19,12,35,18.20
2011,05,19,12,36,18.30
2011,05,19,12,37,18.30
2011,05,19,12,38,18.20
2011,05,19,12,39,18.10
2011,05,19,12,40,18.00
2011,05,19,12,41,17.90
2011,05,19,12,42,17.90
2011,05,19,12,43,17.90
2011,05,19,12,44,17.90
2011,05,19,12,45,17.90
2011,05,19,12,46,18.00
2011,05,19,12,47,18.00
2011,05,19,12,48,17.90
2011,05,19,12,49,18.00
2011,05,19,12,50,18.00
2011,05,19,12,51,18.00
2011,05,19,12,52,18.00
2011,05,19,12,53,18.00
2011,05,19,12,54,18.00
2011,05,19,12,55,18.00
2011,05,19,12,56,18.00
2011,05,19,12,57,18.00
2011,05,19,12,58,18.10
2011,05,19,12,59,18.10
2011,05,19,13,00,18.20
2011,05,19,13,01,18.30
2011,05,19,13,02,18.40
2011,05,19,13,03,18.40
2011,05,19,13,04,18.50
2011,05,19,13,05,18.60
2011,05,19,13,06,18.60
2011,05,19,13,07,18.60
2011,05,19,13,08,18.70
2011,05,19,13,09,18.80
2011,05,19,13,10,18.80
2011,05,19,13,11,18.80
2011,05,19,13,12,18.80
2011,05,19,13,13,18.80
2011,05,19,13,14,18.80
2011,05,19,13,15,18.80
2011,05,19,13,16,18.70
2011,05,19,13,17,18.60
2011,05,19,13,18,18.50
2011,05,19,13,19,18.40
2011,05,19,13,20,18.30
2011,05,19,13,21,18.30
2011,05,19,13,22,18.30
2011,05,19,13,23,18.30
2011,05,19,13,24,18.30
2011,05,19,13,25,18.40
2011,05,19,13,26,18.50
2011,05,19,13,27,18.50
2011,05,19,13,28,18.60
2011,05,19,13,29,18.50
2011,05,19,13,30,18.60
2011,05,19,13,31,18.60
2011,05,19,13,32,18.70
2011,05,19,13,33,18.70
2011,05,19,13,34,18.70
2011,05,19,13,35,18.70
2011,05,19,13,36,18.70
2011,05,19,13,37,18.70
2011,05,19,13,38,18.70
2011,05,19,13,39,18.60
2011,05,19,13,40,18.60
2011,05,19,13,41,18.60
2011,05,19,13,42,18.60
2011,05,19,13,43,18.50
2011,05,19,13,44,18.50
2011,05,19,13,45,18.50
2011,05,19,13,46,18.60
2011,05,19,13,47,18.60
2011,05,19,13,48,18.60
2011,05,19,13,49,18.60
2011,05,19,13,50,18.70
2011,05,19,13,51,18.70
2011,05,19,13,52,18.70
2011,05,19,13,53,18.80
2011,05,19,13,54,18.80
2011,05,19,13,55,18.90
2011,05,19,13,56,19.00
2011,05,19,13,57,18.90
2011,05,19,13,58,18.90
2011,05,19,13,59,18.70
2011,05,19,14,00,18.70
2011,05,19,14,01,18.60
2011,05,19,14,02,18.60
2011,05,19,14,03,18.60
2011,05,19,14,04,18.70
2011,05,19,14,05,18.70
2011,05,19,14,06,18.70
2011,05,19,14,07,18.70
2011,05,19,14,08,18.70
2011,05,19,14,09,18.70
2011,05,19,14,10,18.70
2011,05,19,14,11,18.80
2011,05,19,14,12,18.80
2011,05,19,14,13,18.80
2011,05,19,14,14,18.80
2011,05,19,14,15,18.90
2011,05,19,14,16,18.90
2011,05,19,14,17,18.90
2011,05,19,14,18,18.90
2011,05,19,14,19,18.90
2011,05,19,14,20,18.90
2011,05,19,14,21,18.90
2011,05,19,14,22,18.90
2011,05,19,14,23,18.90
2011,05,19,14,24,18.80
2011,05,19,14,25,18.70
2011,05,19,14,26,18.70
2011,05,19,14,27,18.70
2011,05,19,14,28,18.70
2011,05,19,14,29,18.70
2011,05,19,14,30,18.80
2011,05,19,14,31,18.80
2011,05,19,14,32,18.80
2011,05,19,14,33,18.80
2011,05,19,14,34,18.80
2011,05,19,14,35,18.90
2011,05,19,14,36,19.00
2011,05,19,14,37,19.00
2011,05,19,14,38,18.90
2011,05,19,14,39,18.90
2011,05,19,14,40,18.90
2011,05,19,14,41,19.00
2011,05,19,14,42,19.10
2011,05,19,14,43,19.10
2011,05,19,14,44,19.10
2011,05,19,14,45,19.10
2011,05,19,14,46,19.20
2011,05,19,14,47,19.10
2011,05,19,14,48,19.10
2011,05,19,14,49,19.10
2011,05,19,14,50,19.10
2011,05,19,14,51,19.00
2011,05,19,14,52,19.00
2011,05,19,14,53,19.10
2011,05,19,14,54,19.10
2011,05,19,14,55,19.10
2011,05,19,14,56,19.10
2011,05,19,14,57,19.20
2011,05,19,14,58,19.20
2011,05,19,14,59,19.30
2011,05,19,15,00,19.30
2011,05,19,15,01,19.30
2011,05,19,15,02,19.20
2011,05,19,15,03,19.20
2011,05,19,15,04,19.20
2011,05,19,15,05,19.20
2011,05,19,15,06,19.20
2011,05,19,15,07,19.20
2011,05,19,15,08,19.30
2011,05,19,15,09,19.20
2011,05,19,15,10,19.20
2011,05,19,15,11,19.20
2011,05,19,15,12,19.30
2011,05,19,15,13,19.30
2011,05,19,15,14,19.30
2011,05,19,15,15,19.30
2011,05,19,15,16,19.30
2011,05,19,15,17,19.30
2011,05,19,15,18,19.20
2011,05,19,15,19,19.20
2011,05,19,15,20,19.30
2011,05,19,15,21,19.40
2011,05,19,15,22,19.30
2011,05,19,15,23,19.30
2011,05,19,15,24,19.30
2011,05,19,15,25,19.30
2011,05,19,15,26,19.30
2011,05,19,15,27,19.30
2011,05,19,15,28,19.30
2011,05,19,15,29,19.20
2011,05,19,15,30,19.20
2011,05,19,15,31,19.20
2011,05,19,15,32,19.20
2011,05,19,15,33,19.10
2011,05,19,15,34,19.10
2011,05,19,15,35,19.00
2011,05,19,15,36,19.00
2011,05,19,15,37,19.10
2011,05,19,15,38,19.10
2011,05,19,15,39,19.10
2011,05,19,15,40,19.10
2011,05,19,15,41,19.00
2011,05,19,15,42,19.00
2011,05,19,15,43,19.10
2011,05,19,15,44,19.10
2011,05,19,15,45,19.10
2011,05,19,15,46,19.10
2011,05,19,15,47,19.10
2011,05,19,15,48,19.10
2011,05,19,15,49,19.10
2011,05,19,15,50,19.10
2011,05,19,15,51,19.10
2011,05,19,15,52,19.20
2011,05,19,15,53,19.20
2011,05,19,15,54,19.10
2011,05,19,15,55,19.10
2011,05,19,15,56,19.10
2011,05,19,15,57,19.00
2011,05,19,15,58,19.10
2011,05,19,15,59,19.10
2011,05,19,16,00,19.10
2011,05,19,16,01,19.20
2011,05,19,16,02,19.20
2011,05,19,16,03,19.20
2011,05,19,16,04,19.20
2011,05,19,16,05,19.20
2011,05,19,16,06,19.20
2011,05,19,16,07,19.20
2011,05,19,16,08,19.20
2011,05,19,16,09,19.30
2011,05,19,16,10,19.40
2011,05,19,16,11,19.50
2011,05,19,16,12,19.60
2011,05,19,16,13,19.70
2011,05,19,16,14,19.80
2011,05,19,16,15,19.80
2011,05,19,16,16,19.80
2011,05,19,16,17,19.70
2011,05,19,16,18,19.70
2011,05,19,16,19,19.70
2011,05,19,16,20,19.60
2011,05,19,16,21,19.60
2011,05,19,16,22,19.50
2011,05,19,16,23,19.40
2011,05,19,16,24,19.40
2011,05,19,16,25,19.40
2011,05,19,16,26,19.50
2011,05,19,16,27,19.60
2011,05,19,16,28,19.70
2011,05,19,16,29,19.80
2011,05,19,16,30,19.80
2011,05,19,16,31,19.90
2011,05,19,16,32,19.90
2011,05,19,16,33,19.90
2011,05,19,16,34,19.80
2011,05,19,16,35,19.80
2011,05,19,16,36,19.70
2011,05,19,16,37,19.70
2011,05,19,16,38,19.70
2011,05,19,16,39,19.60
2011,05,19,16,40,19.60
2011,05,19,16,41,19.50
2011,05,19,16,42,19.50
2011,05,19,16,43,19.50
2011,05,19,16,44,19.50
2011,05,19,16,45,19.50
2011,05,19,16,46,19.50
2011,05,19,16,47,19.50
2011,05,19,16,48,19.50
2011,05,19,16,49,19.40
2011,05,19,16,50,19.40
2011,05,19,16,51,19.40
2011,05,19,16,52,19.40
2011,05,19,16,53,19.40
2011,05,19,16,54,19.40
2011,05,19,16,55,19.40
2011,05,19,16,56,19.50
2011,05,19,16,57,19.40
2011,05,19,16,58,19.40
2011,05,19,16,59,19.40
2011,05,19,17,00,19.40
2011,05,19,17,01,19.40
2011,05,19,17,02,19.50
2011,05,19,17,03,19.60
2011,05,19,17,04,19.60
2011,05,19,17,05,19.60
2011,05,19,17,06,19.60
2011,05,19,17,07,19.60
2011,05,19,17,08,19.60
2011,05,19,17,09,19.70
2011,05,19,17,10,19.70
2011,05,19,17,11,19.80
2011,05,19,17,12,19.90
2011,05,19,17,13,19.90
2011,05,19,17,14,19.90
2011,05,19,17,15,19.90
2011,05,19,17,16,19.90
2011,05,19,17,17,19.90
2011,05,19,17,18,19.80
2011,05,19,17,19,19.80
2011,05,19,17,20,19.90
2011,05,19,17,21,19.90
2011,05,19,17,22,19.90
2011,05,19,17,23,19.90
2011,05,19,17,24,19.80
2011,05,19,17,25,19.80
2011,05,19,17,26,19.80
2011,05,19,17,27,19.80
2011,05,19,17,28,19.80
2011,05,19,17,29,19.80
2011,05,19,17,30,19.80
2011,05,19,17,31,19.70
2011,05,19,17,32,19.70
2011,05,19,17,33,19.70
2011,05,19,17,34,19.80
2011,05,19,17,35,19.80
2011,05,19,17,36,19.80
2011,05,19,17,37,19.80
2011,05,19,17,38,19.90
2011,05,19,17,39,19.90
2011,05,19,17,40,19.90
2011,05,19,17,41,20.00
2011,05,19,17,42,20.10
2011,05,19,17,43,20.10
2011,05,19,17,44,20.20